User: anonymous   Login
Location: Churchill
(58.7670°N, 94.1670°W)
Time: 17:21:27
(UTC-05:00)
Language:

Cosmos 1315 Rocket - Orbit

View from above orbital plane
View from above orbital plane
View from above satellite
View from above satellite

Ground track
Ground track

The orbit data is extracted from the following two-line orbital elements,

1 12904U 81103B   17172.83126233 +.00000242 +00000-0 +15145-4 0  9993
2 12904 081.1784 270.2580 0029142 051.5989 308.7844 15.05288869493301
Epoch (UTC): 21 June 2017 19:57:01
Eccentricity: 0.0029142
inclination: 81.1784°
perigee height: 530 km
apogee height: 571 km
right ascension of ascending node: 270.2580°
argument of perigee: 51.5989°
revolutions per day: 15.05288869
mean anomaly at epoch: 308.7844°
orbit number at epoch: 49330

The dashed part of the orbit path shows where the satellite is in the earth's shadow,  

DLR